Location: Schommer Observatory
(40.5200°N, 74.4500°W)
Time: 13:44:39
(UTC-04:00)

Envisat - Visible Passes

Search period start: 28 March 2017 00:00
Search period end: 07 April 2017 00:00
Orbit: 764 x 766 km, 98.2° (Epoch: 26 March)

Date Brightness Start Highest point End Pass type
(mag) Time Alt. Az. Time Alt. Az. Time Alt. Az.
28 Mar 3.5 20:28:31 18° SE 20:31:54 40° ENE 20:36:36 10° N visible
28 Mar 5.0 22:08:43 17° SW 22:11:00 23° W 22:15:03 10° NW visible
29 Mar 4.4 19:52:00 10° ESE 19:55:31 19° ENE 19:59:02 10° NNE visible
29 Mar 3.6 21:31:29 26° SSW 21:34:07 52° W 21:39:05 10° NNW visible
30 Mar 2.9 20:54:15 23° SSE 20:57:24 70° ENE 21:02:29 10° N visible
30 Mar 5.6 22:34:36 10° WSW 22:36:54 13° W 22:39:13 10° WNW visible
31 Mar 3.8 20:17:01 13° SE 20:20:54 32° ENE 20:25:22 10° N visible
31 Mar 4.6 21:57:13 19° SW 21:59:52 29° W 22:04:18 10° NW visible
01 Apr 3.2 21:19:59 24° S 21:23:01 67° WSW 21:28:06 10° NNW visible
02 Apr 3.1 20:42:46 18° SE 20:46:23 55° ENE 20:51:21 10° N visible
02 Apr 5.4 22:22:57 11° SW 22:25:43 17° W 22:28:57 10° NW visible
03 Apr 4.1 20:05:48 10° ESE 20:09:56 26° ENE 20:14:04 10° NNE visible
03 Apr 4.3 21:45:44 20° SSW 21:48:44 37° W 21:53:27 10° NNW visible
04 Apr 3.0 21:08:31 21° S 21:11:57 84° WSW 21:17:04 10° NNW visible
05 Apr 3.4 20:31:17 14° SE 20:35:22 44° ENE 20:40:10 10° N visible
05 Apr 5.1 22:11:29 13° SW 22:14:33 21° W 22:18:23 10° NW visible
06 Apr 4.4 19:55:16 10° ESE 19:58:58 21° ENE 20:02:42 10° NNE visible
06 Apr 3.8 21:34:16 19° SSW 21:37:38 47° W 21:42:32 10° NNW visible
